Location: Dampvalley
(47.9094°N, 6.1967°E)
Time: 02:28:44
(UTC+00:00)

SO-50 - Pass Details

Date: 05 December 2021
Orbit: 595 x 689 km, 64.6° (Epoch: 24 January)

Event Time Altitude Azimuth Distance (km) Brightness Sun altitude
Rises 16:40:02 0° 317° (NW) 3,023 ? -9.2°
Reaches altitude 10° 16:42:24 10° 311° (NW) 2,117 ? -9.6°
Maximum altitude 16:47:00 46° 240° (WSW) 923 ? -10.3°
Drops below altitude 10° 16:51:39 10° 167° (SSE) 2,133 ? -11.0°
Sets 16:54:03 0° 162° (SSE) 3,047 ? -11.4°
